Location: ?
(34.8110°N, 135.7210°E)
Time: 11:40:27
(UTC+00:00)

Daily predictions for brighter satellites

Satellite Brightness Start Highest point End
(mag) Time Altitude Azimuth Time Altitude Azimuth Time Altitude Azimuth
Cosmos 1844 Rocket 3.9 18:23:34 34° SE 18:23:34 34° SE 18:26:46 10° SE
Aureole 1 Rocket 4.3 18:26:01 66° ESE 18:26:13 66° ESE 18:31:54 10° NNE
Cosmos 2333 Rocket 2.7 18:36:10 54° NNE 18:36:10 54° NNE 18:40:32 10° NNE
Cosmos 1844 3.9 18:42:59 51° N 18:44:23 71° ENE 18:50:07 10° SSE
NOSS 3-4 (A) 4.3 18:43:12 27° S 18:46:04 45° ESE 18:51:53 10° NE
NOSS 3-4 (C) 4.3 18:43:10 26° S 18:46:09 45° ESE 18:51:59 10° NE
ADEOS 4.1 18:41:26 10° NNE 18:45:21 52° NNE 18:45:21 52° NNE
MSX 4.1 18:43:41 10° NNE 18:49:22 63° ESE 18:54:15 14° S
USA 234 3.6 18:43:46 10° ESE 18:50:10 60° NE 18:53:59 26° NNW
Cosmos 1709 Rocket 4.0 18:52:21 61° NW 18:52:21 61° NW 18:57:50 10° N
BREEZE-M DEB (TANK) 3.2 18:56:01 49° NE 18:56:01 49° NE 18:58:28 10° E
Milstar 3 4.5 18:54:39 16° SSW 18:57:57 22° SSE 19:03:03 10° ESE
Cosmos 2219 Rocket 2.5 19:09:59 46° NW 19:09:59 46° NW 19:14:42 10° N
CZ-4B R/B 3.8 19:10:32 10° NNE 19:14:23 45° E 19:18:02 10° S
Cosmos 2237 Rocket 2.4 19:10:03 10° S 19:15:39 69° ESE 19:21:19 10° NNE
CZ-2C R/B 2.7 19:10:29 10° NNE 19:15:41 70° ESE 19:20:47 10° S
BREEZE-M DEB (TANK) 3.9 19:16:03 25° SW 19:21:13 75° SSE 19:24:50 10° ENE
COSMOS 2428 3.3 19:26:03 35° WNW 19:26:03 35° WNW 19:31:04 10° N
ATLAS 2AS CENTAUR R/B 3.0 19:21:40 28° SW 19:26:12 64° NW 19:34:14 10° NNE
Cosmos 2074 Rocket 3.9 19:21:31 10° S 19:27:46 89° WNW 19:34:02 10° N
CENTAUR R/B 4.3 19:20:19 10° NNW 19:27:59 42° NE 19:36:06 10° ESE
Meteor 1-4 Rocket 4.3 19:24:56 10° SSE 19:28:08 33° E 19:31:19 10° NNE
Cosmos 1980 3.6 19:27:06 13° SSW 19:32:15 79° WNW 19:37:55 10° NNE
IDEFIX/ARIANE 42P 3.4 19:28:03 10° N 19:31:59 30° NW 19:31:59 30° NW
NOSS 0 Rocket 3.8 19:28:23 18° SW 19:32:57 67° WNW 19:39:08 10° NNE
Cosmos 1140 Rocket 3.9 19:30:15 10° S 19:35:23 64° ESE 19:40:31 10° NNE
Cosmos 1953 4.0 19:31:46 10° NNE 19:35:30 36° E 19:39:11 10° SSE
USA 238 DEB 3.8 19:28:46 10° NNW 19:36:05 85° WSW 19:43:33 10° SSE
ERBS 3.8 19:37:03 25° NNW 19:37:03 25° NNW 19:39:09 10° NNE
USA 238 3.8 19:28:53 10° NNW 19:36:11 86° WSW 19:43:39 10° SSE
COSMOS 2455 4.4 19:39:03 17° NW 19:39:03 17° NW 19:42:29 10° N
Cosmos 2181 Rocket 4.1 19:33:56 10° NNW 19:40:00 49° W 19:45:57 10° SSW
PAYLOAD A 4.1 19:36:53 10° N 19:41:33 49° WNW 19:46:22 10° SSW
Cosmos 1758 3.3 19:38:07 10° N 19:42:07 86° E 19:46:09 10° S
Cosmos 1992 Rocket 4.3 19:39:03 14° NW 19:43:08 41° WSW 19:47:58 10° S
Cosmos 614 Rocket 3.9 19:38:12 10° SSW 19:43:24 69° WNW 19:48:37 10° NNE
Cosmos 292 Rocket 3.9 19:41:58 10° NNW 19:46:47 79° ENE 19:51:36 10° SSE
COSMO-SKYMED 1 4.1 19:46:15 10° SE 19:50:15 38° ENE 19:54:16 10° N
RESURS DK-1 3.7 19:48:36 10° S 19:52:30 42° ESE 19:56:25 10° NE
Cosmos 389 Rocket 2.4 19:53:43 10° SSW 19:57:02 52° W 20:00:24 10° N
Cosmos 489 Rocket 4.5 19:52:20 10° NNW 19:58:37 88° WSW 20:04:54 10° SSE
CZ-4B R/B 4.2 19:56:03 10° N 19:59:49 42° WNW 20:03:43 10° SW
H-2A R/B 3.9 19:59:12 10° NNW 20:02:08 19° WNW 20:02:08 19° WNW
NOSS 3-2 (A) 4.1 19:54:49 10° NW 20:02:39 70° WSW 20:11:08 10° SSE
PSLV R/B 4.3 20:01:33 13° SSW 20:03:29 30° SSE 20:05:52 10° E
Cosmos 1844 Rocket 4.2 20:05:24 15° WSW 20:05:24 15° WSW 20:07:51 10° SW
Meteor 1-31 Rocket 3.4 20:02:09 10° N 20:05:34 32° WNW 20:08:58 10° SW
SL-16 R/B 2.6 20:01:28 10° S 20:07:03 68° ESE 20:12:41 10° NNE
Meteor PRIRODA 4.0 20:07:55 10° N 20:11:29 44° WNW 20:15:02 10° SSW
Cosmos 1726 Rocket 3.9 20:07:52 10° N 20:12:11 69° E 20:16:27 10° SSE
Okean O Rocket 2.4 20:08:02 10° NNE 20:12:22 56° E 20:16:39 10° S
Cosmos 1707 3.4 20:09:42 10° SW 20:13:15 33° W 20:16:50 10° NNW
Cosmos 676 Rocket 4.0 20:08:11 10° SSW 20:13:28 70° WNW 20:18:44 10° NNE
Cosmos 1470 3.3 20:10:51 10° NNW 20:14:25 34° W 20:17:56 10° SSW
GPS 2-05 Rocket1 4.1 20:17:55 14° WSW 20:19:21 19° SSW 20:21:25 10° SSE
Cosmos 2333 Rocket 3.9 20:18:14 12° WNW 20:19:49 13° NW 20:22:17 10° NNW
Cosmos 2228 2.9 20:17:00 10° N 20:21:16 84° W 20:25:30 10° S
Cosmos 1484 Rocket 2.9 20:19:24 10° N 20:23:04 49° WNW 20:26:47 10° SSW
FENGYUN 3A 4.1 20:17:42 10° NNE 20:23:08 71° ESE 20:28:33 10° S
Cosmos 2278 Rocket 2.3 20:18:28 10° NNW 20:24:00 55° WSW 20:29:30 10° S
Cosmos 2058 Rocket 3.7 20:20:38 10° N 20:25:00 61° E 20:29:23 10° SSE
NOSS 3-2 (C) 4.2 20:17:10 10° NW 20:25:02 74° WSW 20:33:34 10° SSE
SeaSat 1 3.3 20:20:48 10° NE 20:25:38 54° ESE 20:30:26 10° S
Milstar 3 Cent rocket 3.4 20:22:19 10° SW 20:26:46 29° SSE 20:30:48 10° ESE
Cosmos 407 Rocket 4.4 20:23:10 10° WSW 20:27:24 25° WNW 20:31:39 10° N
Cosmos 2154 Rocket 4.2 20:22:31 10° SSW 20:28:27 48° W 20:34:25 10° N
Cosmos 921 Rocket 4.1 20:28:42 10° NW 20:32:03 23° W 20:35:21 10° SSW
USA 234 4.0 20:27:35 10° S 20:33:18 32° SW 20:39:04 10° WNW
Cosmos 1356 3.4 20:30:43 10° N 20:34:11 86° W 20:37:37 10° S
NOSS 3-4 (A) 4.4 20:32:03 10° WSW 20:37:06 27° NW 20:42:23 10° N
NOSS 3-4 (C) 4.4 20:32:05 10° WSW 20:37:10 28° NW 20:42:30 10° N
SKYMED 2 3.7 20:33:57 10° S 20:38:11 55° W 20:42:27 10° NNW
METEOR-M 4.1 20:34:13 10° N 20:39:32 75° WNW 20:44:51 10° SSW
